Regional Weather Roundup
Issued by NWS San Diego, CA

Home | Current Version | Previous Version | Text Only | Print | Product List | Glossary On
Versions: 1 2 3 4 5 6 7 8 9 10 11 12 13 14 15 16 17 18 19 20 21 22 23 24 25 26 27 28 29 30 31 32 33 34 35 36 37 38 39 40 41 42 43 44 45 46 47 48 49
000
ASUS46 KSGX 030911
RWRSGX

SAN DIEGO HOURLY WEATHER ROUNDUP
NATIONAL WEATHER SERVICE SAN DIEGO CA
200 AM PDT MON AUG 03 2015

NOTE: "FAIR" INDICATES FEW OR NO CLOUDS BELOW 12,000 FEET WITH NO
SIGNIFICANT WEATHER AND/OR OBSTRUCTIONS TO VISIBILITY.

CAZ042-043-060-061-PZZ750-775-031000-

GREATER SAN DIEGO AREA

CITY           SKY/WX    TMP DP  RH WIND       PRES   REMARKS
LINDBERGH FLD  CLOUDY    70  63  78 CALM      29.88F
POINT LOMA       N/A     67  63  86 NW6         N/A
NATIONAL CITY    N/A     70  65  84 CALM      29.88S
CHULA VISTA      N/A     69  65  89 CALM      29.80F
IMPERIAL BEACH CLOUDY   N/A N/A N/A CALM      29.87F
BROWN FIELD    CLOUDY    67  64  90 W3        29.88S
MIRAMAR MCAS   CLOUDY    71  63  75 CALM      29.88S
MONTGOMERY FLD CLOUDY    68  63  84 CALM      29.88S

$$

NORTH SAN DIEGO COUNTY

CITY           SKY/WX    TMP DP  RH WIND       PRES   REMARKS
CAMP PENDLETON CLOUDY    71  63  75 NE3       29.87S
OCEANSIDE AP   CLOUDY    71  64  78 SE3       29.86S
VISTA            N/A     67  63  85 CALM      29.85F
CARLSBAD       CLOUDY    68  64  87 E5        29.87S
DEL MAR          N/A     68  65  89 CALM      29.89S
FALLBROOK        N/A     66  66 100 CALM      29.87F
ESCONDIDO        N/A     67  64  89 CALM      29.89F
POWAY            N/A     67  63  87 CALM      29.88F

$$

EAST SAN DIEGO COUNTY

CITY           SKY/WX    TMP DP  RH WIND       PRES   REMARKS
RAMONA         FOG       61  60  97 CALM      29.90S VSB 1/4
SANTEE LAKES     N/A     67  64  89 CALM      29.86F
LA MESA          N/A     66  64  90 CALM      29.80F
JAMUL            N/A     64  62  93 CALM      29.86S
DESCANSO N       N/A     60  45  57 E5        29.72F
CAMPO            N/A     60  56  86 NE3       29.92S

$$

ORANGE COUNTY AND THE LOS ANGELES BASIN

CITY           SKY/WX    TMP DP  RH WIND       PRES   REMARKS
JOHN WAYNE AP  MOCLDY    69  65  86 SW5       29.87S
SANTA ANA        N/A     70  65  83 CALM      29.83R
HUNTINGTON BCH   N/A     67  66  94 W1        29.89S
LOS ALAMITOS   FAIR      68  66  93 SE3       29.87R
FULLERTON      MOCLDY    70  64  81 S3        29.86S
LONG BEACH     CLEAR     70  65  84 SE3       29.86S
L.A. AP        PTCLDY    69  64  84 SE3       29.87S
L.A. DOWNTOWN  CLEAR     70  62  76 CALM      29.86S

$$

THE INLAND EMPIRE

CITY           SKY/WX    TMP DP  RH WIND       PRES   REMARKS
CORONA         PTCLDY    64  62  93 CALM      29.89R
CHINO          CLEAR     67  63  87 CALM      29.89S
ONTARIO        PTCLDY    69  62  78 VRB5      29.88F
RIVERSIDE AP   CLEAR     70  63  78 CALM      29.88F
MORENO VALLEY    N/A     68  66  92 CALM      29.85F
MARCH ARB      CLEAR     67  64  87 W2        29.90S
HORSETHIEF CYN   N/A     67  57  70 SW3       29.88F
PERRIS           N/A     68  63  84 SE2       29.90S
MENIFEE          N/A     69  64  85 CALM      29.95S
HEMET EAST       N/A     68  57  67 CALM      29.87S
FRENCH VALLEY  FAIR      64  61  88 CALM      29.91S
TEMECULA         N/A     66  64  92 CALM      29.86S

$$

SAN BERNARDINO AND RIVERSIDE COUNTY MOUNTAINS

CITY           SKY/WX    TMP DP  RH WIND       PRES   REMARKS
BIG BEAR AP    CLEAR     50  32  50 CALM      30.23S
ANGELUS OAKS     N/A     63  38  39 W1        29.73F
PINE COVE        N/A     68  30  24 CALM      29.81F

$$

SOUTHERN DESERT INCLUDING THE COACHELLA VALLEY

CITY           SKY/WX    TMP DP  RH WIND       PRES   REMARKS
PALM SPRINGS   CLEAR     88  57  34 CALM      29.74S
THOUSAND PALMS   N/A     89  56  32 W13       29.69F
THERMAL        CLEAR     90  57  32 N6        29.67R
BLYTHE         CLEAR     92  51  24 SW7       29.71S
IMPERIAL AP    CLEAR     86  43  22 W7        29.67F
EL CENTRO NAS  CLEAR     88  39  17 W8        29.70S
YUMA AZ        CLEAR     89  54  30 S5        29.71F

$$

UPPER DESERT

CITY           SKY/WX    TMP DP  RH WIND       PRES   REMARKS
VICTORVILLE AP CLEAR     72  46  40 CALM      29.94F
HESPERIA         N/A     69  53  55 CALM      29.88F
APPLE VALLEY     N/A     70  48  46 CALM      30.00S
PALMDALE       CLEAR     74  42  31 SW9       29.92S
LANCASTER      CLEAR     75  48  38 W13       29.91S
EDWARDS AFB    CLEAR     72  46  40 SW9       29.88S
DAGGETT        CLEAR     83  41  22 NW13      29.86S
29 PALMS N     CLEAR     83  39  21 NW7       29.91S
NEEDLES        CLEAR     96  44  16 VRB5      29.73R

$$

REGIONAL REPORTS

CITY           SKY/WX    TMP DP  RH WIND       PRES   REMARKS
SANTA BARBARA  CLEAR     69  62  78 E9        29.83R
SANDBERG       CLEAR     68  50  52 N16       30.06F
LAS VEGAS NV   CLEAR     87  40  19 SW7       29.78R
PHOENIX AZ     PTCLDY    95  54  25 NW5       29.75S
TIJUANA        CLOUDY    68  61  77 CALM      29.89F
ENSENADA NW      N/A     68  32  26 CALM      29.84F

$$

OFFSHORE ISLANDS

CITY           SKY/WX    TMP DP  RH WIND       PRES   REMARKS
CATALINA ARPT  CLEAR     66  54  65 CALM      29.92S
SAN NICOLAS IS CLEAR    N/A N/A N/A NW30G37   29.88F

$$

MARINE AND OFFSHORE BUOY REPORTS

STATION/POSITION SKY/WX   TEMP    WIND        PRES    SWELL
                          AIR SEA DIR/SP/G            HT/PER/DIR
                          (F)     (DEG/KT/KT) (MB)    (FT/S/D)
TANNER BANKS               67 68  310/ 21/ 25 1012.3S   2/260/15
S CLEMENTE BASIN           67 70  300/ 12/ 16 1011.5F   3/300/ 7
SAN NICOLAS IS.               65                N/A     2/190/17
SO. S. ROSA ISLA           65 67  310/ 21/ 27 1010.6F   2/12
W. S. BARBARA CH           62 61  320/ 21/ 25 1011.0S   2/210/16
M. S. BARBARA CH           67 68  280/ 12/ 16 1010.5R
S. MONICA BASIN            69 72   20/  6/  8 1011.1R   3/260/ 7
S PEDRO CHANNEL               72                N/A
DANA POINT                    71                N/A     2/210/15
OCEANSIDE OFFSHR              73                N/A     2/210/17
TORREY PINES OTR              73                N/A     2/210/15
LA JOLLA 1                 69 72  300/  2/  2 1011.5F
MISSION BAY BUOY              71                N/A     2/210/15
SAN DIEGO BAY                 73              1012.1F
POINT LOMA SOUTH              72                N/A     2/200/17

$$




USA.gov is the U.S. government's official web portal to all federal, state and local government web resources and services.